When you browse on this site, cookies collect data to enhance your experience and personalize the content and advertising you see.
Visit our Privacy Policy to learn more. By continuing to use the site, you agree to this use of cookies and data.
  • în România
  • Lista ţărilor
  • Pe 7 zile
  • Temperatura apei
  • Hartă satelitară
  • Meteo pe hartă
  • Widget-uri
  • user-avatar
    Intrare

    Meteo pe oră la Zahozhe

    Astăzi, 18 Ianuarie, Vineri

    Timp Temperatura Precipitaţii Vânt Presiune Umiditate
    00:00 -1°C° 0 mm 6 m/s 727 mmHg 85%
    01:00 -1°C° 0 mm 6 m/s 728 mmHg 85%
    02:00 -1°C° 0 mm 5 m/s 728 mmHg 87%
    03:00 -1°C° 0.1 mm 5 m/s 729 mmHg 86%
    04:00 -1°C° 0.1 mm 5 m/s 729 mmHg 86%
    05:00 -1°C° 0.1 mm 5 m/s 730 mmHg 86%
    06:00 -2°C° 0 mm 5 m/s 730 mmHg 86%
    07:00 -2°C° 0 mm 4 m/s 731 mmHg 87%
    08:00 -2°C° 0 mm 3 m/s 731 mmHg 89%
    09:00 -4°C° 0.1 mm 3 m/s 732 mmHg 88%
    10:00 -4°C° 0.1 mm 3 m/s 732 mmHg 87%
    11:00 -4°C° 0.1 mm 3 m/s 733 mmHg 86%
    12:00 -5°C° 0.1 mm 3 m/s 733 mmHg 87%
    13:00 -4°C° 0.1 mm 2 m/s 733 mmHg 89%
    14:00 -2°C° 0.1 mm 1 m/s 733 mmHg 90%
    15:00 -5°C° 0.4 mm 2 m/s 733 mmHg 92%
    16:00 -5°C° 0.4 mm 2 m/s 733 mmHg 94%
    17:00 -6°C° 0.4 mm 2 m/s 733 mmHg 95%
    18:00 -7°C° 0.8 mm 2 m/s 733 mmHg 95%
    19:00 -7°C° 0.8 mm 2 m/s 733 mmHg 95%
    20:00 -7°C° 0.8 mm 2 m/s 733 mmHg 94%
    21:00 -8°C° 0.1 mm 2 m/s 734 mmHg 93%
    22:00 -8°C° 0.1 mm 2 m/s 735 mmHg 92%
    23:00 -8°C° 0.1 mm 2 m/s 735 mmHg 90%

    Mâine, 19 Ianuarie, Sâmbătă

    Timp Temperatura Precipitaţii Vânt Presiune Umiditate
    00:00 -10°C° 0 mm 2 m/s 736 mmHg 91%
    01:00 -13°C° 0 mm 3 m/s 736 mmHg 92%
    02:00 -14°C° 0 mm 3 m/s 737 mmHg 93%
    03:00 -14°C° 0 mm 3 m/s 737 mmHg 93%
    04:00 -14°C° 0 mm 3 m/s 737 mmHg 93%
    05:00 -14°C° 0 mm 4 m/s 737 mmHg 93%
    06:00 -14°C° 0 mm 4 m/s 738 mmHg 92%
    07:00 -12°C° 0 mm 4 m/s 738 mmHg 91%
    08:00 -11°C° 0 mm 4 m/s 738 mmHg 90%
    09:00 -10°C° 0.1 mm 4 m/s 739 mmHg 89%
    10:00 -9°C° 0.1 mm 4 m/s 739 mmHg 88%
    11:00 -8°C° 0.1 mm 4 m/s 739 mmHg 87%
    12:00 -8°C° 0.1 mm 4 m/s 740 mmHg 86%
    13:00 -9°C° 0.1 mm 4 m/s 740 mmHg 84%
    14:00 -8°C° 0.1 mm 3 m/s 740 mmHg 83%
    15:00 -9°C° 0 mm 3 m/s 740 mmHg 85%
    16:00 -10°C° 0 mm 3 m/s 741 mmHg 88%
    17:00 -10°C° 0 mm 2 m/s 741 mmHg 90%
    18:00 -12°C° 0 mm 2 m/s 741 mmHg 91%
    19:00 -12°C° 0 mm 2 m/s 742 mmHg 92%
    20:00 -13°C° 0 mm 2 m/s 742 mmHg 92%
    21:00 -12°C° 0 mm 2 m/s 742 mmHg 93%
    22:00 -10°C° 0 mm 2 m/s 742 mmHg 94%
    23:00 -9°C° 0 mm 2 m/s 743 mmHg 94%

    Poimâine, 20 Ianuarie, Duminică

    Timp Temperatura Precipitaţii Vânt Presiune Umiditate
    00:00 -10°C° 0 mm 3 m/s 743 mmHg 93%
    01:00 -9°C° 0 mm 3 m/s 743 mmHg 91%
    02:00 -9°C° 0 mm 4 m/s 743 mmHg 90%
    03:00 -10°C° 0 mm 4 m/s 742 mmHg 89%
    04:00 -11°C° 0 mm 5 m/s 742 mmHg 88%
    05:00 -11°C° 0 mm 5 m/s 741 mmHg 87%
    06:00 -11°C° 0.1 mm 5 m/s 741 mmHg 87%
    07:00 -10°C° 0.1 mm 5 m/s 740 mmHg 87%
    08:00 -8°C° 0.1 mm 5 m/s 740 mmHg 87%
    09:00 -8°C° 0.1 mm 6 m/s 739 mmHg 85%
    10:00 -6°C° 0.1 mm 6 m/s 739 mmHg 84%
    11:00 -6°C° 0.1 mm 7 m/s 739 mmHg 83%
    12:00 -5°C° 0.4 mm 6 m/s 739 mmHg 85%
    13:00 -5°C° 0.4 mm 6 m/s 738 mmHg 87%
    14:00 -5°C° 0.4 mm 5 m/s 738 mmHg 89%
    15:00 -5°C° 0.2 mm 4 m/s 738 mmHg 88%
    16:00 -7°C° 0.2 mm 4 m/s 739 mmHg 87%
    17:00 -8°C° 0.2 mm 4 m/s 739 mmHg 85%
    18:00 -9°C° 0 mm 4 m/s 739 mmHg 87%
    19:00 -10°C° 0 mm 4 m/s 740 mmHg 88%
    20:00 -11°C° 0 mm 4 m/s 740 mmHg 89%
    21:00 -12°C° 0 mm 3 m/s 740 mmHg 90%
    22:00 -13°C° 0 mm 3 m/s 741 mmHg 90%
    23:00 -14°C° 0 mm 3 m/s 741 mmHg 91%

    21 Ianuarie, Luni

    Timp Temperatura Precipitaţii Vânt Presiune Umiditate
    00:00 -15°C° 0 mm 3 m/s 741 mmHg 92%
    01:00 -15°C° 0 mm 3 m/s 741 mmHg 93%
    02:00 -15°C° 0 mm 2 m/s 741 mmHg 94%
    03:00 -16°C° 0 mm 2 m/s 741 mmHg 94%
    04:00 -16°C° 0 mm 2 m/s 741 mmHg 95%
    05:00 -16°C° 0 mm 2 m/s 741 mmHg 95%
    06:00 -17°C° 0 mm 2 m/s 742 mmHg 95%
    07:00 -17°C° 0 mm 2 m/s 742 mmHg 95%
    08:00 -17°C° 0 mm 2 m/s 742 mmHg 96%
    09:00 -16°C° 0 mm 2 m/s 742 mmHg 94%
    10:00 -16°C° 0 mm 3 m/s 743 mmHg 93%
    11:00 -15°C° 0 mm 3 m/s 743 mmHg 91%
    12:00 -14°C° 0 mm 3 m/s 743 mmHg 89%
    13:00 -14°C° 0 mm 3 m/s 743 mmHg 87%
    14:00 -13°C° 0 mm 3 m/s 743 mmHg 85%
    15:00 -15°C° 0 mm 3 m/s 743 mmHg 87%
    16:00 -15°C° 0 mm 2 m/s 744 mmHg 90%
    17:00 -16°C° 0 mm 2 m/s 744 mmHg 92%
    18:00 -17°C° 0 mm 2 m/s 744 mmHg 93%
    19:00 -18°C° 0 mm 2 m/s 744 mmHg 94%
    20:00 -19°C° 0 mm 2 m/s 745 mmHg 94%
    21:00 -19°C° 0 mm 2 m/s 745 mmHg 95%
    22:00 -20°C° 0 mm 2 m/s 745 mmHg 95%
    23:00 -20°C° 0 mm 2 m/s 745 mmHg 96%

    22 Ianuarie, Marţi

    Timp Temperatura Precipitaţii Vânt Presiune Umiditate
    00:00 -20°C° 0 mm 2 m/s 745 mmHg 96%
    01:00 -20°C° 0 mm 2 m/s 746 mmHg 97%
    02:00 -20°C° 0 mm 2 m/s 746 mmHg 97%
    03:00 -20°C° 0 mm 2 m/s 746 mmHg 97%
    04:00 -20°C° 0 mm 2 m/s 746 mmHg 98%
    05:00 -20°C° 0 mm 2 m/s 746 mmHg 98%
    06:00 -19°C° 0 mm 1 m/s 746 mmHg 98%
    07:00 -19°C° 0 mm 1 m/s 746 mmHg 98%
    08:00 -19°C° 0 mm 1 m/s 746 mmHg 98%
    09:00 -18°C° 0 mm 1 m/s 746 mmHg 97%
    10:00 -17°C° 0 mm 1 m/s 746 mmHg 96%
    11:00 -15°C° 0 mm 1 m/s 746 mmHg 95%
    12:00 -15°C° 0 mm 1 m/s 746 mmHg 95%
    13:00 -14°C° 0 mm 1 m/s 746 mmHg 95%
    14:00 -14°C° 0 mm 0 m/s 746 mmHg 95%
    15:00 -15°C° 0 mm 0 m/s 746 mmHg 96%
    16:00 -16°C° 0 mm 0 m/s 746 mmHg 97%
    17:00 -18°C° 0 mm 0 m/s 746 mmHg 98%
    18:00 -18°C° 0 mm 0 m/s 746 mmHg 99%
    19:00 -18°C° 0 mm 0 m/s 746 mmHg 99%
    20:00 -18°C° 0 mm 0 m/s 746 mmHg 99%
    21:00 -18°C° 0 mm 1 m/s 746 mmHg 99%
    22:00 -18°C° 0 mm 1 m/s 746 mmHg 99%
    23:00 -18°C° 0 mm 1 m/s 746 mmHg 99%

    23 Ianuarie, Miercuri

    Timp Temperatura Precipitaţii Vânt Presiune Umiditate
    00:00 -17°C° 0 mm 1 m/s 746 mmHg 99%
    01:00 -17°C° 0 mm 1 m/s 746 mmHg 98%
    02:00 -19°C° 0 mm 2 m/s 746 mmHg 98%
    03:00 -18°C° 0 mm 2 m/s 746 mmHg 98%
    04:00 -17°C° 0 mm 2 m/s 746 mmHg 98%
    05:00 -16°C° 0 mm 2 m/s 746 mmHg 97%
    06:00 -15°C° 0 mm 2 m/s 746 mmHg 97%
    07:00 -15°C° 0 mm 2 m/s 746 mmHg 97%
    08:00 -14°C° 0 mm 2 m/s 746 mmHg 96%
    09:00 -14°C° 0 mm 3 m/s 746 mmHg 95%
    10:00 -13°C° 0 mm 3 m/s 746 mmHg 94%
    11:00 -10°C° 0 mm 3 m/s 746 mmHg 93%
    12:00 -10°C° 0 mm 3 m/s 746 mmHg 92%
    13:00 -9°C° 0 mm 3 m/s 746 mmHg 91%
    14:00 -10°C° 0 mm 4 m/s 745 mmHg 90%
    15:00 -12°C° 0 mm 3 m/s 745 mmHg 90%
    16:00 -13°C° 0 mm 3 m/s 746 mmHg 91%
    17:00 -14°C° 0 mm 3 m/s 746 mmHg 91%
    18:00 -14°C° 0 mm 3 m/s 746 mmHg 92%
    19:00 -14°C° 0 mm 3 m/s 746 mmHg 92%
    20:00 -13°C° 0 mm 3 m/s 746 mmHg 92%
    21:00 -14°C° 0 mm 3 m/s 746 mmHg 92%
    22:00 -14°C° 0 mm 3 m/s 746 mmHg 92%
    23:00 -14°C° 0 mm 3 m/s 747 mmHg 92%
    Arată mai mult